Overview Statistics Trail Chart Weather Telemetry Raw packets
 

This is the latest recevied weather packets stored in our database for station/object VE8SKI. If no packets are shown the sender has not sent any weather packets the latest 10 day(s).

<< 73 74 75 76 77 78 79 >>
Time Temp. Humidity Pressure Rain* Wind** Luminosity Snow
1777583165 7.78° C 55% 1010.5 hPa 0 mm 0 m/s - -
1777582865 7.78° C 54% 1010.5 hPa 0 mm 0 m/s - -
1777582566 8.33° C 53% 1010.4 hPa 0 mm 0 m/s - -
1777582264 8.33° C 53% 1010.5 hPa 0 mm 0 m/s - -
1777581964 8.33° C 53% 1010.5 hPa 0 mm 0 m/s - -
1777581665 7.78° C 53% 1010.6 hPa 0 mm 0 m/s - -
1777581365 8.33° C 53% 1010.6 hPa 0 mm 0 m/s - -
1777581066 8.33° C 53% 1010.7 hPa 0 mm 0 m/s - -
1777580766 8.33° C 54% 1010.7 hPa 0 mm 0 m/s - -
1777580464 8.33° C 53% 1010.9 hPa 0 mm 0 m/s - -
1777580164 8.33° C 53% 1011.1 hPa 0 mm 4.02 m/s, 229° - -
1777579865 8.33° C 53% 1011.1 hPa 0 mm 2.68 m/s, 309° - -
1777579565 8.33° C 53% 1011.2 hPa 0 mm 2.68 m/s, 262° - -
1777579266 8.33° C 54% 1011.1 hPa 0 mm 2.68 m/s, 208° - -
1777578967 8.33° C 53% 1011.2 hPa 0 mm 4.02 m/s, 276° - -
1777578664 8.33° C 53% 1011.1 hPa 0 mm 3.58 m/s, 176° - -
1777578365 8.33° C 54% 1011.2 hPa 0 mm 2.68 m/s, 248° - -
1777578065 8.33° C 53% 1011.3 hPa 0 mm 3.58 m/s, 236° - -
1777577766 8.89° C 53% 1011.3 hPa 0 mm 1.34 m/s, 174° - -
1777577466 8.89° C 53% 1011.3 hPa 0 mm 3.13 m/s, 217° - -
1777577167 8.89° C 53% 1011.4 hPa 0 mm 1.79 m/s, 236° - -
1777576865 8.89° C 54% 1011.4 hPa 0 mm 2.68 m/s, 262° - -
1777576565 8.89° C 53% 1011.4 hPa 0 mm 2.68 m/s, 243° - -
1777576266 9.44° C 53% 1011.4 hPa 0 mm 2.68 m/s, 359° - -
1777575966 9.44° C 53% 1011.4 hPa 0 mm 1.34 m/s, 226° - -

* Rain latest hour (hover to see other rain measurements)
** Current wind speed in m/s (hover to see current wind gust speed)